,,,PA_Meas_PMT16A,,PR_Meas_QMR101_102,,RH_Meas_QMH101,,SR_Meas_QMS101,,TA_Meas_QMH101,,GenWind,,GenWind,
date,time,status,PA,status,PR,status,RH,status,SR,status,TA,status,DirAvg,status,SpdAvg,
2009-10-27, 00:00:04,VALID,1000.41,VALID,0,VALID,92.8754,VALID,0,VALID,23.703,VALID,91,VALID,0.135547,
2009-10-27, 00:01:04,VALID,1000.39,VALID,0,VALID,92.8448,VALID,0,VALID,23.6232,VALID,91,VALID,0.101563,
2009-10-27, 00:02:04,VALID,1000.41,VALID,0,VALID,92.8448,VALID,0,VALID,23.6036,VALID,91,VALID,0,
2009-10-27, 00:03:04,VALID,1000.37,VALID,0,VALID,92.8296,VALID,0,VALID,23.5646,VALID,91,VALID,0,
2009-10-27, 00:04:04,VALID,1000.37,VALID,0,VALID,92.8601,VALID,0,VALID,23.5664,VALID,91,VALID,0,
2009-10-27, 00:05:04,VALID,1000.35,VALID,0,VALID,92.9364,VALID,0,VALID,23.5451,VALID,91,VALID,0,
2009-10-27, 00:06:04,VALID,1000.33,VALID,0,VALID,92.944,VALID,0,VALID,23.5646,VALID,91,VALID,0,
2009-10-27, 00:07:04,VALID,1000.32,VALID,0,VALID,92.9745,VALID,0,VALID,23.5469,VALID,91,VALID,0,
2009-10-27, 00:08:04,VALID,1000.33,VALID,0,VALID,93.028,VALID,0,VALID,23.5451,VALID,91,VALID,0.119141,
2009-10-27, 00:09:04,VALID,1000.35,VALID,0,VALID,93.0127,VALID,0,VALID,23.5451,VALID,91,VALID,0.227344,
2009-10-27, 00:10:04,VALID,1000.34,VALID,0,VALID,92.9288,VALID,0,VALID,23.5061,VALID,91,VALID,0.468359,
2009-10-27, 00:11:04,VALID,1000.34,VALID,0,VALID,93.2263,VALID,0,VALID,23.5646,VALID,91,VALID,0.317578,
2009-10-27, 00:12:04,VALID,1000.35,VALID,0,VALID,93.1653,VALID,0,VALID,23.5841,VALID,91,VALID,0.207813,
2009-10-27, 00:13:04,VALID,1000.33,VALID,0,VALID,93.0661,VALID,0,VALID,23.5664,VALID,91,VALID,0.353906,
2009-10-27, 00:14:04,VALID,1000.29,VALID,0,VALID,92.8601,VALID,0,VALID,23.4671,VALID,91,VALID,0.441406,
2009-10-27, 00:15:04,VALID,1000.27,VALID,0,VALID,92.6541,VALID,0,VALID,23.35,VALID,91,VALID,0.474219,
2009-10-27, 00:16:04,VALID,1000.22,VALID,0,VALID,93.1119,VALID,0,VALID,23.389,VALID,91,VALID,0.532422,
2009-10-27, 00:17:04,VALID,1000.19,VALID,0,VALID,93.1348,VALID,0,VALID,23.4085,VALID,80,VALID,0.672266,
2009-10-27, 00:18:04,VALID,1000.18,VALID,0,VALID,93.15,VALID,0,VALID,23.3482,VALID,76,VALID,0.544922,
2009-10-27, 00:19:04,VALID,1000.14,VALID,0,VALID,93.295,VALID,0,VALID,23.4103,VALID,76,VALID,0.621484,
2009-10-27, 00:20:04,VALID,1000.13,VALID,0,VALID,93.3713,VALID,0,VALID,23.428,VALID,76,VALID,0.657812,
2009-10-27, 00:21:04,VALID,1000.12,VALID,0,VALID,93.356,VALID,0,VALID,23.428,VALID,76,VALID,0.623047,
2009-10-27, 00:22:04,VALID,1000.08,VALID,0,VALID,93.3408,VALID,0,VALID,23.4475,VALID,76,VALID,0.659375,
2009-10-27, 00:23:04,VALID,1000.09,VALID,0,VALID,93.295,VALID,0,VALID,23.428,VALID,76,VALID,0.607031,
2009-10-27, 00:24:04,VALID,1000.08,VALID,0,VALID,93.3026,VALID,0,VALID,23.4085,VALID,76,VALID,0.578125,
2009-10-27, 00:25:04,VALID,1000.08,VALID,0,VALID,93.3103,VALID,0,VALID,23.4085,VALID,76,VALID,0.553125,
2009-10-27, 00:26:04,VALID,1000.08,VALID,0,VALID,93.3255,VALID,0,VALID,23.428,VALID,76,VALID,0.465234,
2009-10-27, 00:27:04,VALID,1000.07,VALID,0,VALID,93.3179,VALID,0,VALID,23.4085,VALID,76,VALID,0.469531,
2009-10-27, 00:28:04,VALID,1000.05,VALID,0,VALID,93.3866,VALID,0,VALID,23.428,VALID,76,VALID,0.549219,
2009-10-27, 00:29:04,VALID,1000.01,VALID,0,VALID,93.4476,VALID,0,VALID,23.4671,VALID,76,VALID,0.6,
2009-10-27, 00:30:04,VALID,999.992,VALID,0,VALID,93.4171,VALID,0,VALID,23.4866,VALID,76,VALID,0.627734,
2009-10-27, 00:31:04,VALID,999.979,VALID,0,VALID,93.4171,VALID,0,VALID,23.4866,VALID,76,VALID,0.75625,
2009-10-27, 00:32:04,VALID,999.97,VALID,0,VALID,93.3942,VALID,0,VALID,23.4866,VALID,76,VALID,0.675391,
2009-10-27, 00:33:04,VALID,999.975,VALID,0,VALID,93.3942,VALID,0,VALID,23.4866,VALID,76,VALID,0.517578,
2009-10-27, 00:34:04,VALID,999.972,VALID,0,VALID,93.3179,VALID,0,VALID,23.4866,VALID,76,VALID,0.428906,
2009-10-27, 00:35:04,VALID,999.936,VALID,0,VALID,93.3255,VALID,0,VALID,23.4653,VALID,76,VALID,0.421484,
2009-10-27, 00:36:04,VALID,999.892,VALID,0,VALID,93.3255,VALID,0,VALID,23.4671,VALID,76,VALID,0.446484,
2009-10-27, 00:37:04,VALID,999.865,VALID,0,VALID,93.3789,VALID,0,VALID,23.5061,VALID,126,VALID,0.758984,
2009-10-27, 00:38:04,VALID,999.86,VALID,0,VALID,93.3637,VALID,0,VALID,23.5256,VALID,132,VALID,0.761328,
2009-10-27, 00:39:04,VALID,999.806,VALID,0,VALID,93.3942,VALID,0,VALID,23.5451,VALID,132,VALID,0.748438,
2009-10-27, 00:40:04,VALID,999.8,VALID,0,VALID,93.4018,VALID,0,VALID,23.5646,VALID,132,VALID,0.710938,
2009-10-27, 00:41:04,VALID,999.783,VALID,0,VALID,93.3713,VALID,0,VALID,23.5841,VALID,132,VALID,0.753516,
2009-10-27, 00:42:04,VALID,999.763,VALID,0,VALID,93.3408,VALID,0,VALID,23.5841,VALID,132,VALID,0.691016,
2009-10-27, 00:43:04,VALID,999.761,VALID,0,VALID,93.2797,VALID,0,VALID,23.5646,VALID,132,VALID,0.528516,
2009-10-27, 00:44:04,VALID,999.778,VALID,0,VALID,93.2568,VALID,0,VALID,23.6054,VALID,132,VALID,0.490234,
2009-10-27, 00:45:04,VALID,999.778,VALID,0,VALID,93.2874,VALID,0,VALID,23.6232,VALID,132,VALID,0.555859,
2009-10-27, 00:46:04,VALID,999.748,VALID,0,VALID,93.3026,VALID,0,VALID,23.6427,VALID,132,VALID,0.620313,
2009-10-27, 00:47:04,VALID,999.724,VALID,0,VALID,93.2797,VALID,0,VALID,23.6817,VALID,132,VALID,0.360938,
2009-10-27, 00:48:04,VALID,999.714,VALID,0,VALID,93.2721,VALID,0,VALID,23.6622,VALID,132,VALID,0.434375,
2009-10-27, 00:49:04,VALID,999.71,VALID,0,VALID,93.2797,VALID,0,VALID,23.7207,VALID,132,VALID,0.520703,
2009-10-27, 00:50:04,VALID,999.701,VALID,0,VALID,93.2492,VALID,0,VALID,23.7207,VALID,132,VALID,0.326562,
2009-10-27, 00:51:04,VALID,999.661,VALID,0,VALID,93.2568,VALID,0,VALID,23.7597,VALID,132,VALID,0.360547,
2009-10-27, 00:52:04,VALID,999.631,VALID,0,VALID,93.1958,VALID,0,VALID,23.7793,VALID,132,VALID,0.240625,
2009-10-27, 00:53:04,VALID,999.559,VALID,0,VALID,93.15,VALID,0,VALID,23.7793,VALID,132,VALID,0,
2009-10-27, 00:54:04,VALID,999.564,VALID,0,VALID,93.0737,VALID,0,VALID,23.7597,VALID,132,VALID,0.0367187,
2009-10-27, 00:55:04,VALID,999.526,VALID,0,VALID,93.0127,VALID,0,VALID,23.7402,VALID,132,VALID,0.337109,
2009-10-27, 00:56:04,VALID,999.562,VALID,0,VALID,93.0814,VALID,0,VALID,23.7811,VALID,132,VALID,0.457422,
2009-10-27, 00:57:04,VALID,999.558,VALID,0,VALID,93.0661,VALID,0,VALID,23.7793,VALID,132,VALID,0.518359,
2009-10-27, 00:58:04,VALID,999.505,VALID,0,VALID,92.944,VALID,0,VALID,23.7597,VALID,132,VALID,0.514844,
2009-10-27, 00:59:04,VALID,999.484,VALID,0,VALID,92.9211,VALID,0,VALID,23.7579,VALID,132,VALID,0.650781,
2009-10-27, 01:00:04,VALID,999.484,VALID,0,VALID,92.8906,VALID,0,VALID,23.7597,VALID,132,VALID,0.505469,
2009-10-27, 01:01:04,VALID,999.508,VALID,0,VALID,92.7533,VALID,0,VALID,23.7402,VALID,132,VALID,0.509375,
2009-10-27, 01:02:04,VALID,999.53,VALID,0,VALID,92.6617,VALID,0,VALID,23.7207,VALID,132,VALID,0.457031,
2009-10-27, 01:03:04,VALID,999.513,VALID,0,VALID,92.6923,VALID,0,VALID,23.742,VALID,132,VALID,0.0558594,
2009-10-27, 01:04:04,VALID,999.551,VALID,0,VALID,92.6541,VALID,0,VALID,23.7225,VALID,132,VALID,0,
2009-10-27, 01:05:04,VALID,999.529,VALID,0,VALID,92.6007,VALID,0,VALID,23.7012,VALID,132,VALID,0,
2009-10-27, 01:06:04,VALID,999.54,VALID,0,VALID,92.5702,VALID,0,VALID,23.6622,VALID,132,VALID,0,
2009-10-27, 01:07:04,VALID,999.521,VALID,0,VALID,92.5854,VALID,0,VALID,23.6622,VALID,132,VALID,0,
2009-10-27, 01:08:04,VALID,999.514,VALID,0,VALID,92.5778,VALID,0,VALID,23.6427,VALID,132,VALID,0,
2009-10-27, 01:09:04,VALID,999.515,VALID,0,VALID,92.6312,VALID,0,VALID,23.6427,VALID,132,VALID,0,
2009-10-27, 01:10:04,VALID,999.517,VALID,0,VALID,92.6236,VALID,0,VALID,23.6036,VALID,132,VALID,0,
2009-10-27, 01:11:04,VALID,999.469,VALID,0,VALID,92.6465,VALID,0,VALID,23.6036,VALID,132,VALID,0,
2009-10-27, 01:12:04,VALID,999.456,VALID,0,VALID,92.6465,VALID,0,VALID,23.6036,VALID,132,VALID,0,
2009-10-27, 01:13:04,VALID,999.45,VALID,0,VALID,92.6465,VALID,0,VALID,23.5841,VALID,132,VALID,0,
2009-10-27, 01:14:04,VALID,999.44,VALID,0,VALID,92.6923,VALID,0,VALID,23.6054,VALID,132,VALID,0,
2009-10-27, 01:15:04,VALID,999.414,VALID,0,VALID,92.7609,VALID,0.112286,VALID,23.6019,VALID,132,VALID,0,
2009-10-27, 01:16:04,VALID,999.388,VALID,0,VALID,92.8296,VALID,0,VALID,23.6232,VALID,132,VALID,0.173828,
2009-10-27, 01:17:04,VALID,999.392,VALID,0,VALID,92.883,VALID,0.112286,VALID,23.6214,VALID,132,VALID,0,
2009-10-27, 01:18:04,VALID,999.334,VALID,0,VALID,92.9135,VALID,0,VALID,23.6409,VALID,132,VALID,0.241406,
2009-10-27, 01:19:04,VALID,999.327,VALID,0,VALID,92.883,VALID,0,VALID,23.6409,VALID,132,VALID,0.398438,
2009-10-27, 01:20:04,VALID,999.335,VALID,0,VALID,92.8296,VALID,0,VALID,23.6622,VALID,132,VALID,0.493359,
2009-10-27, 01:21:04,VALID,999.323,VALID,0,VALID,92.8067,VALID,0,VALID,23.6409,VALID,132,VALID,0.530078,
2009-10-27, 01:22:04,VALID,999.323,VALID,0,VALID,92.822,VALID,0.112286,VALID,23.6409,VALID,132,VALID,0.583984,
2009-10-27, 01:23:04,VALID,999.305,VALID,0,VALID,92.7991,VALID,0,VALID,23.6817,VALID,132,VALID,0.456641,
2009-10-27, 01:24:04,VALID,999.296,VALID,0,VALID,92.7304,VALID,0,VALID,23.6604,VALID,132,VALID,0.442969,
2009-10-27, 01:25:04,VALID,999.318,VALID,0,VALID,92.6999,VALID,0.112286,VALID,23.6604,VALID,132,VALID,0.419141,
2009-10-27, 01:26:04,VALID,999.281,VALID,0,VALID,92.6388,VALID,0.112286,VALID,23.6799,VALID,132,VALID,0.338281,
2009-10-27, 01:27:04,VALID,999.268,VALID,0,VALID,92.5091,VALID,0,VALID,23.6817,VALID,132,VALID,0.530859,
2009-10-27, 01:28:04,VALID,999.257,VALID,0,VALID,92.471,VALID,0,VALID,23.6604,VALID,132,VALID,0.519531,
2009-10-27, 01:29:04,VALID,999.225,VALID,0,VALID,92.3947,VALID,0,VALID,23.6604,VALID,150,VALID,0.625391,
2009-10-27, 01:30:04,VALID,999.209,VALID,0,VALID,92.2345,VALID,0,VALID,23.6604,VALID,162,VALID,1.05742,
2009-10-27, 01:31:04,VALID,999.18,VALID,0,VALID,92.1506,VALID,0.112286,VALID,23.7207,VALID,169,VALID,1.05195,
2009-10-27, 01:32:04,VALID,999.162,VALID,0,VALID,92.0209,VALID,0,VALID,23.7207,VALID,170,VALID,0.845312,
2009-10-27, 01:33:04,VALID,999.152,VALID,0,VALID,91.7614,VALID,0,VALID,23.7207,VALID,167,VALID,0.841797,
2009-10-27, 01:34:04,VALID,999.144,VALID,0,VALID,91.6546,VALID,0,VALID,23.7189,VALID,166,VALID,0.558594,
2009-10-27, 01:35:04,VALID,999.168,VALID,0,VALID,91.4868,VALID,0,VALID,23.7189,VALID,160,VALID,0.635156,
2009-10-27, 01:36:04,VALID,999.186,VALID,0,VALID,91.4028,VALID,0.112286,VALID,23.7384,VALID,160,VALID,0.688281,
2009-10-27, 01:37:04,VALID,999.184,VALID,0,VALID,91.2731,VALID,0,VALID,23.7597,VALID,160,VALID,0.650391,
2009-10-27, 01:38:04,VALID,999.197,VALID,0,VALID,91.1511,VALID,0.112286,VALID,23.7775,VALID,160,VALID,0.554297,
2009-10-27, 01:39:04,VALID,999.177,VALID,0,VALID,91.1129,VALID,0,VALID,23.7988,VALID,171,VALID,0.9375,
2009-10-27, 01:40:04,VALID,999.18,VALID,0,VALID,91.0519,VALID,0,VALID,23.8165,VALID,172,VALID,1.01094,
2009-10-27, 01:41:04,VALID,999.152,VALID,0,VALID,90.8917,VALID,0.112286,VALID,23.8555,VALID,172,VALID,0.929688,
2009-10-27, 01:42:04,VALID,999.166,VALID,0,VALID,90.7009,VALID,0,VALID,23.8945,VALID,177,VALID,0.943359,
2009-10-27, 01:43:04,VALID,999.181,VALID,0,VALID,90.5712,VALID,0,VALID,23.9159,VALID,181,VALID,0.541406,
2009-10-27, 01:44:04,VALID,999.215,VALID,0,VALID,89.8693,VALID,0,VALID,23.8963,VALID,227,VALID,0.520703,
2009-10-27, 01:45:04,VALID,999.184,VALID,0,VALID,89.5946,VALID,0,VALID,23.7597,VALID,277,VALID,0.632031,
2009-10-27, 01:46:04,VALID,999.16,VALID,0,VALID,90.0143,VALID,0,VALID,23.664,VALID,302,VALID,0.707812,
2009-10-27, 01:47:04,VALID,999.146,VALID,0,VALID,90.5026,VALID,0,VALID,23.5664,VALID,305,VALID,0.573828,
2009-10-27, 01:48:04,VALID,999.14,VALID,0,VALID,90.9146,VALID,0,VALID,23.5469,VALID,305,VALID,0.496094,
2009-10-27, 01:49:04,VALID,999.139,VALID,0,VALID,91.174,VALID,0,VALID,23.4866,VALID,305,VALID,0.298438,
2009-10-27, 01:50:04,VALID,999.125,VALID,0,VALID,91.3266,VALID,0,VALID,23.4475,VALID,305,VALID,0.139844,
2009-10-27, 01:51:04,VALID,999.109,VALID,0,VALID,91.3189,VALID,0,VALID,23.4298,VALID,305,VALID,0.108203,
2009-10-27, 01:52:04,VALID,999.159,VALID,0,VALID,91.4105,VALID,0,VALID,23.3908,VALID,305,VALID,0,
2009-10-27, 01:53:04,VALID,999.126,VALID,0,VALID,91.2579,VALID,0,VALID,23.3323,VALID,305,VALID,0,
2009-10-27, 01:54:04,VALID,999.132,VALID,0,VALID,91.3647,VALID,0,VALID,23.2737,VALID,305,VALID,0.210547,
2009-10-27, 01:55:04,VALID,999.111,VALID,0,VALID,91.708,VALID,0,VALID,23.2737,VALID,305,VALID,0.302344,
2009-10-27, 01:56:04,VALID,999.099,VALID,0,VALID,91.792,VALID,0,VALID,23.2542,VALID,305,VALID,0.19375,
2009-10-27, 01:57:04,VALID,999.038,VALID,0,VALID,91.8377,VALID,0,VALID,23.2134,VALID,305,VALID,0,
2009-10-27, 01:58:04,VALID,999.009,VALID,0,VALID,91.9293,VALID,0,VALID,23.1939,VALID,305,VALID,0.101953,
2009-10-27, 01:59:04,VALID,999.014,VALID,0,VALID,91.8301,VALID,0,VALID,23.1549,VALID,305,VALID,0.00273437,
2009-10-27, 02:00:04,VALID,998.98,VALID,0,VALID,92.0132,VALID,0,VALID,23.1549,VALID,305,VALID,0.174609,
2009-10-27, 02:01:04,VALID,998.976,VALID,0,VALID,92.3031,VALID,0,VALID,23.1336,VALID,305,VALID,0.361328,
2009-10-27, 02:02:04,VALID,999.002,VALID,0,VALID,92.3718,VALID,0,VALID,23.1549,VALID,99,VALID,0.314063,
2009-10-27, 02:03:04,VALID,999.009,VALID,0,VALID,92.4634,VALID,0.112286,VALID,23.1336,VALID,112,VALID,0.530859,
2009-10-27, 02:04:04,VALID,998.998,VALID,0,VALID,92.5549,VALID,0,VALID,23.1531,VALID,141,VALID,0.603906,
2009-10-27, 02:05:04,VALID,999.042,VALID,0,VALID,92.677,VALID,0,VALID,23.1939,VALID,154,VALID,0.665234,
2009-10-27, 02:06:04,VALID,999.034,VALID,0,VALID,92.7304,VALID,0.112286,VALID,23.2117,VALID,154,VALID,0.682813,
2009-10-27, 02:07:04,VALID,999.055,VALID,0,VALID,92.738,VALID,0,VALID,23.2719,VALID,154,VALID,0.621484,
2009-10-27, 02:08:04,VALID,999.081,VALID,0,VALID,92.6999,VALID,0,VALID,23.2507,VALID,154,VALID,0.519141,
2009-10-27, 02:09:04,VALID,999.065,VALID,0,VALID,92.6999,VALID,0,VALID,23.2915,VALID,154,VALID,0.394141,
2009-10-27, 02:10:04,VALID,999.047,VALID,0,VALID,92.6694,VALID,0.112286,VALID,23.2897,VALID,154,VALID,0.326953,
2009-10-27, 02:11:04,VALID,999.045,VALID,0,VALID,92.6388,VALID,0,VALID,23.3092,VALID,154,VALID,0.164063,
2009-10-27, 02:12:04,VALID,999.033,VALID,0,VALID,92.2116,VALID,0,VALID,23.2702,VALID,154,VALID,0.109375,
2009-10-27, 02:13:04,VALID,999.004,VALID,0,VALID,91.8148,VALID,0,VALID,23.1939,VALID,154,VALID,0.296875,
2009-10-27, 02:14:04,VALID,998.978,VALID,0,VALID,91.914,VALID,0,VALID,23.1141,VALID,154,VALID,0.254297,
2009-10-27, 02:15:04,VALID,998.98,VALID,0,VALID,91.914,VALID,0,VALID,23.0964,VALID,154,VALID,0.226563,
2009-10-27, 02:16:04,VALID,998.919,VALID,0,VALID,91.9064,VALID,0,VALID,23.0573,VALID,154,VALID,0.486328,
2009-10-27, 02:17:04,VALID,998.836,VALID,0,VALID,92.265,VALID,0,VALID,23.0361,VALID,141,VALID,0.745703,
2009-10-27, 02:18:04,VALID,998.817,VALID,0,VALID,92.532,VALID,0,VALID,23.0964,VALID,141,VALID,0.838281,
2009-10-27, 02:19:04,VALID,998.793,VALID,0,VALID,92.6465,VALID,0.112286,VALID,23.1141,VALID,141,VALID,0.916016,
2009-10-27, 02:20:04,VALID,998.808,VALID,0,VALID,92.5473,VALID,0,VALID,23.1336,VALID,141,VALID,0.784766,
2009-10-27, 02:21:04,VALID,998.823,VALID,0,VALID,92.471,VALID,0,VALID,23.1336,VALID,141,VALID,0.790234,
2009-10-27, 02:22:04,VALID,998.858,VALID,0,VALID,92.3947,VALID,0,VALID,23.1549,VALID,141,VALID,0.529688,
2009-10-27, 02:23:04,VALID,998.89,VALID,0,VALID,92.2421,VALID,0.112286,VALID,23.1141,VALID,141,VALID,0.250781,
2009-10-27, 02:24:04,VALID,998.915,VALID,0,VALID,92.2268,VALID,0.112286,VALID,23.1159,VALID,141,VALID,0,
2009-10-27, 02:25:04,VALID,998.952,VALID,0,VALID,92.1963,VALID,0.112286,VALID,23.0556,VALID,141,VALID,0,
2009-10-27, 02:26:04,VALID,998.983,VALID,0,VALID,92.0895,VALID,0,VALID,23.0378,VALID,141,VALID,0,
2009-10-27, 02:27:04,VALID,999.005,VALID,0,VALID,92.0361,VALID,0.112286,VALID,22.9988,VALID,141,VALID,0.0152344,
2009-10-27, 02:28:04,VALID,999.013,VALID,0,VALID,91.9217,VALID,0.112286,VALID,22.9403,VALID,141,VALID,0.380078,
2009-10-27, 02:29:04,VALID,998.998,VALID,0,VALID,92.2345,VALID,0,VALID,22.9403,VALID,141,VALID,0.367188,
2009-10-27, 02:30:04,VALID,999.01,VALID,0,VALID,92.2345,VALID,0,VALID,22.942,VALID,141,VALID,0.160156,
2009-10-27, 02:31:04,VALID,998.995,VALID,0,VALID,92.1887,VALID,0,VALID,22.8818,VALID,141,VALID,0,
2009-10-27, 02:32:04,VALID,999.004,VALID,0,VALID,92.1582,VALID,0,VALID,22.8427,VALID,141,VALID,0,
2009-10-27, 02:33:04,VALID,999.036,VALID,0,VALID,92.1277,VALID,0,VALID,22.8232,VALID,141,VALID,0,
2009-10-27, 02:34:04,VALID,999.057,VALID,0,VALID,92.3489,VALID,0,VALID,22.8037,VALID,141,VALID,0,
2009-10-27, 02:35:04,VALID,999.107,VALID,0,VALID,92.5473,VALID,0,VALID,22.8232,VALID,141,VALID,0,
2009-10-27, 02:36:04,VALID,999.076,VALID,0,VALID,92.7304,VALID,0,VALID,22.9225,VALID,141,VALID,0,
2009-10-27, 02:37:04,VALID,999.109,VALID,0,VALID,92.6617,VALID,0,VALID,22.9208,VALID,141,VALID,0,
2009-10-27, 02:38:04,VALID,999.068,VALID,0,VALID,92.7762,VALID,0,VALID,22.9615,VALID,141,VALID,0,
2009-10-27, 02:39:04,VALID,999.072,VALID,0,VALID,92.8754,VALID,0,VALID,22.9615,VALID,141,VALID,0,
2009-10-27, 02:40:04,VALID,999.067,VALID,0,VALID,92.9135,VALID,0,VALID,22.9793,VALID,141,VALID,0,
2009-10-27, 02:41:04,VALID,999.079,VALID,0,VALID,92.9898,VALID,0,VALID,22.9988,VALID,112,VALID,0.542578,
2009-10-27, 02:42:04,VALID,999.07,VALID,0,VALID,93.0356,VALID,0,VALID,23.0183,VALID,32,VALID,0.726563,
2009-10-27, 02:43:04,VALID,999.091,VALID,0,VALID,92.944,VALID,0,VALID,22.9988,VALID,24,VALID,0.785156,
2009-10-27, 02:44:04,VALID,999.117,VALID,0,VALID,92.822,VALID,0,VALID,22.9598,VALID,24,VALID,0.705078,
2009-10-27, 02:45:04,VALID,999.052,VALID,0,VALID,92.822,VALID,0,VALID,22.9403,VALID,24,VALID,0.590625,
2009-10-27, 02:46:04,VALID,999.081,VALID,0,VALID,92.8677,VALID,0,VALID,22.9208,VALID,24,VALID,0.635156,
2009-10-27, 02:47:04,VALID,999.072,VALID,0,VALID,92.8906,VALID,0,VALID,22.9208,VALID,24,VALID,0.494922,
2009-10-27, 02:48:04,VALID,999.055,VALID,0,VALID,93.0127,VALID,0,VALID,22.9208,VALID,24,VALID,0.398047,
2009-10-27, 02:49:04,VALID,999.07,VALID,0,VALID,93.0661,VALID,0,VALID,22.942,VALID,24,VALID,0.384766,
2009-10-27, 02:50:04,VALID,999.096,VALID,0,VALID,93.0814,VALID,0,VALID,22.9208,VALID,24,VALID,0.365234,
2009-10-27, 02:51:04,VALID,999.144,VALID,0,VALID,93.0737,VALID,0,VALID,22.9013,VALID,24,VALID,0.314063,
2009-10-27, 02:52:04,VALID,999.17,VALID,0,VALID,93.0661,VALID,0,VALID,22.9225,VALID,24,VALID,0.248828,
2009-10-27, 02:53:04,VALID,999.202,VALID,0,VALID,92.9898,VALID,0,VALID,22.8427,VALID,24,VALID,0.303906,
2009-10-27, 02:54:04,VALID,999.235,VALID,0,VALID,93.0661,VALID,0,VALID,22.8427,VALID,24,VALID,0.166797,
2009-10-27, 02:55:04,VALID,999.209,VALID,0,VALID,93.1653,VALID,0,VALID,22.8818,VALID,24,VALID,0,
2009-10-27, 02:56:04,VALID,999.255,VALID,0,VALID,93.1348,VALID,0,VALID,22.8623,VALID,24,VALID,0,
2009-10-27, 02:57:04,VALID,999.25,VALID,0,VALID,93.2645,VALID,0,VALID,22.903,VALID,24,VALID,0,
2009-10-27, 02:58:04,VALID,999.298,VALID,0,VALID,93.295,VALID,0,VALID,22.9225,VALID,24,VALID,0.255078,
2009-10-27, 02:59:04,VALID,999.342,VALID,0,VALID,93.1882,VALID,0,VALID,22.8818,VALID,24,VALID,0.556641,
2009-10-27, 03:00:04,VALID,999.352,VALID,0,VALID,93.3026,VALID,0,VALID,22.942,VALID,15,VALID,0.68125,
2009-10-27, 03:01:04,VALID,999.366,VALID,0,VALID,93.3866,VALID,0,VALID,22.9598,VALID,11,VALID,0.732813,
2009-10-27, 03:02:04,VALID,999.338,VALID,0,VALID,93.4552,VALID,0,VALID,22.9988,VALID,11,VALID,0.675,
2009-10-27, 03:03:04,VALID,999.351,VALID,0,VALID,93.3866,VALID,0,VALID,23.0183,VALID,11,VALID,0.457812,
2009-10-27, 03:04:04,VALID,999.392,VALID,0,VALID,93.3713,VALID,0,VALID,22.9988,VALID,11,VALID,0.262109,
2009-10-27, 03:05:04,VALID,999.383,VALID,0,VALID,93.356,VALID,0,VALID,23.0183,VALID,11,VALID,0,
2009-10-27, 03:06:04,VALID,999.371,VALID,0,VALID,93.3789,VALID,0,VALID,23.0378,VALID,11,VALID,0,
2009-10-27, 03:07:04,VALID,999.361,VALID,0,VALID,93.3713,VALID,0,VALID,23.0786,VALID,11,VALID,0,
2009-10-27, 03:08:04,VALID,999.419,VALID,0,VALID,93.44,VALID,0,VALID,23.1159,VALID,230,VALID,0.525781,
2009-10-27, 03:09:04,VALID,999.413,VALID,0,VALID,93.5163,VALID,0,VALID,23.2347,VALID,229,VALID,0.741406,
2009-10-27, 03:10:04,VALID,999.458,VALID,0,VALID,93.5544,VALID,0,VALID,23.2915,VALID,229,VALID,0.739844,
2009-10-27, 03:11:04,VALID,999.447,VALID,0,VALID,93.5468,VALID,0,VALID,23.35,VALID,226,VALID,0.657031,
2009-10-27, 03:12:04,VALID,999.482,VALID,0,VALID,93.5391,VALID,0,VALID,23.4085,VALID,226,VALID,0.419141,
2009-10-27, 03:13:04,VALID,999.5,VALID,0,VALID,93.5086,VALID,0,VALID,23.4688,VALID,226,VALID,0.021875,
2009-10-27, 03:14:04,VALID,999.548,VALID,0,VALID,93.4857,VALID,0,VALID,23.4475,VALID,238,VALID,0.513281,
2009-10-27, 03:15:04,VALID,999.656,VALID,0,VALID,93.3866,VALID,0,VALID,23.4884,VALID,319,VALID,1.47227,
2009-10-27, 03:16:04,VALID,999.699,VALID,0,VALID,93.295,VALID,0,VALID,23.4671,VALID,309,VALID,1.29023,
2009-10-27, 03:17:04,VALID,999.667,VALID,0,VALID,93.1653,VALID,0,VALID,23.428,VALID,311,VALID,1.14336,
2009-10-27, 03:18:04,VALID,999.667,VALID,0,VALID,93.0966,VALID,0,VALID,23.428,VALID,302,VALID,0.772656,
2009-10-27, 03:19:04,VALID,999.689,VALID,0,VALID,93.0966,VALID,0,VALID,23.428,VALID,301,VALID,0.583203,
2009-10-27, 03:20:04,VALID,999.659,VALID,0,VALID,93.1653,VALID,0,VALID,23.4671,VALID,299,VALID,0.787109,
2009-10-27, 03:21:04,VALID,999.621,VALID,0,VALID,93.1729,VALID,0,VALID,23.5061,VALID,283,VALID,0.559766,
2009-10-27, 03:22:04,VALID,999.632,VALID,0,VALID,93.1729,VALID,0,VALID,23.5256,VALID,290,VALID,0.244922,
2009-10-27, 03:23:04,VALID,999.602,VALID,0,VALID,93.1577,VALID,0,VALID,23.5451,VALID,290,VALID,0,
2009-10-27, 03:24:04,VALID,999.581,VALID,0,VALID,93.1424,VALID,0,VALID,23.5646,VALID,290,VALID,0.0117188,
2009-10-27, 03:25:04,VALID,999.567,VALID,0,VALID,93.1195,VALID,0,VALID,23.5646,VALID,285,VALID,0.155859,
2009-10-27, 03:26:04,VALID,999.569,VALID,0,VALID,93.0814,VALID,0,VALID,23.5841,VALID,158,VALID,0.607031,
2009-10-27, 03:27:04,VALID,999.568,VALID,0,VALID,93.0508,VALID,0,VALID,23.6036,VALID,156,VALID,0.666016,
2009-10-27, 03:28:04,VALID,999.57,VALID,0,VALID,93.0508,VALID,0,VALID,23.6232,VALID,151,VALID,0.823047,
2009-10-27, 03:29:04,VALID,999.54,VALID,0,VALID,93.028,VALID,0,VALID,23.6427,VALID,189,VALID,0.779688,
2009-10-27, 03:30:04,VALID,999.514,VALID,0,VALID,92.9822,VALID,0,VALID,23.7012,VALID,170,VALID,1.53359,
2009-10-27, 03:31:04,VALID,999.547,VALID,0,VALID,93.028,VALID,0.112286,VALID,23.7793,VALID,162,VALID,1.66836,
2009-10-27, 03:32:04,VALID,999.53,VALID,0,VALID,92.8983,VALID,0,VALID,23.7988,VALID,182,VALID,1.50391,
2009-10-27, 03:33:04,VALID,999.541,VALID,0,VALID,92.7609,VALID,0,VALID,23.797,VALID,174,VALID,1.70234,
2009-10-27, 03:34:04,VALID,999.519,VALID,0,VALID,92.6846,VALID,0,VALID,23.8573,VALID,167,VALID,2.19414,
2009-10-27, 03:35:04,VALID,999.52,VALID,0,VALID,92.6388,VALID,0,VALID,23.8555,VALID,169,VALID,2.51914,
2009-10-27, 03:36:04,VALID,999.514,VALID,0,VALID,92.4176,VALID,0,VALID,23.836,VALID,179,VALID,1.84766,
2009-10-27, 03:37:04,VALID,999.516,VALID,0,VALID,92.2726,VALID,0,VALID,23.797,VALID,166,VALID,1.59648,
2009-10-27, 03:38:04,VALID,999.526,VALID,0,VALID,92.2879,VALID,0,VALID,23.8183,VALID,182,VALID,1.26836,
2009-10-27, 03:39:04,VALID,999.496,VALID,0,VALID,92.4023,VALID,0,VALID,23.8378,VALID,160,VALID,1.24063,
2009-10-27, 03:40:04,VALID,999.5,VALID,0,VALID,92.3489,VALID,0,VALID,23.8183,VALID,133,VALID,1.89258,
2009-10-27, 03:41:04,VALID,999.492,VALID,0,VALID,92.3337,VALID,0,VALID,23.797,VALID,131,VALID,1.91992,
2009-10-27, 03:42:04,VALID,999.469,VALID,0,VALID,92.2803,VALID,0,VALID,23.7775,VALID,129,VALID,1.49648,
2009-10-27, 03:43:04,VALID,999.492,VALID,0,VALID,92.3413,VALID,0,VALID,23.7775,VALID,128,VALID,1.23047,
2009-10-27, 03:44:04,VALID,999.506,VALID,0,VALID,92.3413,VALID,0,VALID,23.7793,VALID,130,VALID,0.889844,
2009-10-27, 03:45:04,VALID,999.52,VALID,0,VALID,92.3718,VALID,0,VALID,23.7579,VALID,121,VALID,0.670703,
2009-10-27, 03:46:04,VALID,999.56,VALID,0,VALID,92.3794,VALID,0,VALID,23.7597,VALID,118,VALID,0.771094,